Location: Noordwijk
(52.2400°N, 4.4500°E)
Time: 01:51:56
(UTC+00:00)

M-CUBED/EXP-1 PRIME - Visible Passes

Search period start: 10 December 2022 00:00
Search period end: 20 December 2022 00:00
Orbit: 418 x 615 km, 101.7° (Epoch: 08 December)

Date Brightness Start Highest point End Pass type
(mag) Time Alt. Az. Time Alt. Az. Time Alt. Az.
10 Dec ? 05:31:48 10° ESE 05:35:29 29° ENE 05:39:15 10° N visible
11 Dec ? 05:17:50 10° ESE 05:21:10 23° NE 05:24:32 10° N visible
11 Dec ? 06:50:13 10° S 06:54:24 61° WSW 06:58:42 10° NNW visible
12 Dec ? 05:04:00 10° E 05:06:50 17° NE 05:09:41 10° N visible
12 Dec ? 06:35:38 10° SSE 06:39:52 87° WSW 06:44:14 10° NNW visible
13 Dec ? 04:50:24 10° ENE 04:52:30 14° NE 04:54:38 10° NNE visible
13 Dec ? 06:21:08 10° SSE 06:25:21 67° ENE 06:29:40 10° NNW visible
14 Dec ? 04:37:23 10° NE 04:38:11 10° NE 04:38:57 10° NNE visible
14 Dec ? 06:06:44 10° SE 06:10:50 48° ENE 06:15:01 10° NNW visible
15 Dec ? 05:52:26 10° SE 05:56:20 35° ENE 06:00:16 10° N visible
16 Dec ? 05:38:14 10° ESE 05:41:49 26° NE 05:45:24 10° N visible
17 Dec ? 05:24:09 10° E 05:27:18 20° NE 05:30:27 10° N visible
17 Dec ? 06:56:11 10° SSE 07:00:28 72° WSW 07:04:47 10° NNW visible
18 Dec ? 05:10:15 10° E 05:12:48 16° NE 05:15:20 10° NNE visible
18 Dec ? 06:41:28 10° SSE 06:45:46 81° ENE 06:50:04 10° NNW visible
19 Dec ? 04:56:40 10° ENE 04:58:17 12° NE 04:59:53 10° NNE visible
19 Dec ? 06:26:50 10° SE 06:31:04 58° ENE 06:35:16 10° NNW visible
